Regional Weather Roundup
Issued by NWS Charleston, WV

Home | Current Version | Previous Version | Graphics & Text | Print | Product List | Glossary On
Versions: 1 2 3 4 5 6 7 8 9 10 11 12 13 14 15 16 17 18 19 20 21 22 23 24 25 26 27 28 29 30 31 32 33 34 35 36 37 38 39 40 41 42 43 44 45 46 47 48 49 50
000
ASUS41 KRLX 280410
RWRRLX
West Virginia Regional Weather Roundup
National Weather Service Charleston WV
1200 AM EDT TUE MAR 28 2017

Note: "fair" indicates few or no clouds below 12,000 feet with no
significant weather and/or obstructions to visibility.

WVZ003-280500-
Northern Panhandle of West Virginia

CITY           SKY/WX    TMP DP  RH WIND       PRES   REMARKS
WHEELING       MOCLDY    60  49  66 SE5       29.88F
$$

WVZ009-280500-
Northwest West Virginia

CITY           SKY/WX    TMP DP  RH WIND       PRES   REMARKS
PARKERSBURG    RAIN      59  56  89 S8        29.92F FOG
$$

WVZ006-280500-
Western West Virginia

CITY           SKY/WX    TMP DP  RH WIND       PRES   REMARKS
HUNTINGTON     TSTM      57  54  89 SE6       29.91F
$$

WVZ015-280500-
West Central West Virginia

CITY           SKY/WX    TMP DP  RH WIND       PRES   REMARKS
CHARLESTON     RAIN      59  56  89 SW16G22   29.96R FOG
$$

WVZ022-031-280500-
North Central West Virginia

CITY           SKY/WX    TMP DP  RH WIND       PRES   REMARKS
CLARKSBURG     CLOUDY    59  54  83 SE3       29.90F
MORGANTOWN     CLOUDY    60  51  72 S3        29.92R
$$

WVZ025-035-042-045-280500-
Southern West Virginia

CITY           SKY/WX    TMP DP  RH WIND       PRES   REMARKS
BECKLEY        CLOUDY    54  52  93 S3        29.94F
LOGAN          LGT RAIN  55  55 100 W8        29.97F
BLUEFIELD      NOT AVBL
LEWISBURG      CLOUDY    52  51  97 CALM      29.95F
$$

WVZ047-280500-
Northern Mountains of West Virginia

CITY           SKY/WX    TMP DP  RH WIND       PRES   REMARKS
ELKINS         LGT RAIN  55  52  89 E3        29.97R
$$

WVZ052-280500-
Eastern Panhandle of West Virginia

CITY           SKY/WX    TMP DP  RH WIND       PRES   REMARKS
MARTINSBURG    PTCLDY    57  54  89 CALM      29.90S
PETERSBURG     PTCLDY    55  52  92 CALM      29.92S
$$



USA.gov is the U.S. government's official web portal to all federal, state and local government web resources and services.